Zurück zum Katalog

STARLINK-36668

AktivKommunikationVLEO
NORAD 68177·PAYLOAD·🇺🇸 United States

Gestartet Mar 14, 2026 von Vandenberg Space Force Base

Loading…

Nächste Überflüge (nächste 24 Stunden)

TLE

AktuellSource: CelesTrak SupGP

Epoche: Sep 15, 2026, 03:40 UTC

1 68177C 26050L   26258.15326389 -.00008964  00000+0 -26508-3 0  2582
2 68177  53.1570 102.6192 0001371  89.4483  95.3437 15.34366449    18

Verfolge STARLINK-36668 in Echtzeit mit AllMySat

Download on the App Store